Location: *
(51.2167°N, 10.0667°E)
Time: 09:39:59
(UTC+00:00)

Cosmos 2369 Rocket - Pass Details

Date: 12 December 2019
Orbit: 828 x 853 km, 71.0° (Epoch: 27 January)

Event Time Altitude Azimuth Distance (km) Brightness Sun altitude
Rises 16:45:38 0° 331° (NNW) 3,390 5.5 -13.7°
Reaches altitude 10° 16:48:18 10° 341° (NNW) 2,456 4.6 -14.0°
Maximum altitude 16:53:25 34° 46° (NE) 1,345 2.8 -14.8°
Enters shadow 16:56:43 19° 99° (E) 1,893 3.5 -15.3°
